TimeCEST,TemperatureF,Dew PointF,Humidity,Sea Level PressureIn,VisibilityMPH,Wind Direction,Wind SpeedMPH,Gust SpeedMPH,PrecipitationIn,Events,Conditions,WindDirDegrees,DateUTC
12:00 AM,51.8,48.2,88,30.09,-9999.0,Variable,1.2,-,N/A,,Clear,0,2013-06-28 22:00:00
1:00 AM,48.2,46.4,93,30.09,-9999.0,Calm,Calm,-,N/A,,Clear,0,2013-06-28 23:00:00
2:00 AM,48.2,46.4,93,30.09,-9999.0,ESE,2.3,-,N/A,,Clear,120,2013-06-29 00:00:00
3:00 AM,46.4,44.6,93,30.09,-9999.0,Calm,Calm,-,N/A,,Clear,0,2013-06-29 01:00:00
4:00 AM,44.6,44.6,100,30.09,2.5,Calm,Calm,-,N/A,,Mist,0,2013-06-29 02:00:00
4:05 AM,44.6,42.8,93,30.09,1.2,Calm,Calm,-,N/A,,Mist,0,2013-06-29 02:05:00
4:15 AM,44.6,42.8,93,30.09,0.4,Calm,Calm,-,N/A,Fog,Fog,0,2013-06-29 02:15:00
5:00 AM,44.6,42.8,93,30.09,0.4,Calm,Calm,-,N/A,Fog,Fog,0,2013-06-29 03:00:00
6:00 AM,46.4,44.6,93,30.09,0.4,South,3.5,-,N/A,Fog,Fog,190,2013-06-29 04:00:00
7:00 AM,48.2,46.4,93,30.09,0.1,Calm,Calm,-,N/A,Fog,Fog,0,2013-06-29 05:00:00
8:00 AM,51.8,50.0,94,30.09,0.4,Calm,Calm,-,N/A,Fog,Fog,0,2013-06-29 06:00:00
8:10 AM,51.8,50.0,94,30.09,0.6,Variable,2.3,-,N/A,Fog,Fog,0,2013-06-29 06:10:00
8:20 AM,51.8,50.0,94,30.09,1.1,Variable,2.3,-,N/A,,Mostly Cloudy,0,2013-06-29 06:20:00
8:35 AM,53.6,51.8,94,30.09,2.5,Variable,2.3,-,N/A,,Mostly Cloudy,0,2013-06-29 06:35:00
9:00 AM,57.2,53.6,88,30.09,3.7,South,3.5,-,N/A,,Mostly Cloudy,180,2013-06-29 07:00:00
9:25 AM,57.2,53.6,88,30.06,6.2,South,4.6,-,N/A,,Scattered Clouds,190,2013-06-29 07:25:00
10:00 AM,59.0,55.4,88,30.06,6.2,Variable,2.3,-,N/A,,Partly Cloudy,0,2013-06-29 08:00:00
11:00 AM,64.4,55.4,73,30.06,6.2,Variable,2.3,-,N/A,,Partly Cloudy,0,2013-06-29 09:00:00
12:00 PM,66.2,48.2,52,30.04,6.2,Variable,2.3,-,N/A,,Partly Cloudy,0,2013-06-29 10:00:00
1:00 PM,68.0,46.4,46,30.04,6.2,West,3.5,-,N/A,,Partly Cloudy,260,2013-06-29 11:00:00
2:00 PM,68.0,50.0,52,30.01,6.2,NE,3.5,-,N/A,,Scattered Clouds,40,2013-06-29 12:00:00
3:00 PM,68.0,51.8,56,30.01,-9999.0,West,9.2,-,N/A,,Clear,280,2013-06-29 13:00:00
4:00 PM,68.0,51.8,56,30.01,-9999.0,West,9.2,-,N/A,,Clear,260,2013-06-29 14:00:00
5:00 PM,69.8,51.8,53,29.98,-9999.0,WNW,8.1,-,N/A,,Clear,290,2013-06-29 15:00:00
6:00 PM,68.0,50.0,52,29.98,-9999.0,NW,8.1,-,N/A,,Clear,320,2013-06-29 16:00:00
7:00 PM,66.2,51.8,60,29.98,-9999.0,NW,4.6,-,N/A,,Clear,310,2013-06-29 17:00:00
8:00 PM,64.4,53.6,68,29.98,-9999.0,Variable,2.3,-,N/A,,Clear,0,2013-06-29 18:00:00
9:00 PM,59.0,51.8,77,30.01,-9999.0,Variable,1.2,-,N/A,,Clear,0,2013-06-29 19:00:00
10:00 PM,59.0,50.0,72,30.01,-9999.0,NW,5.8,-,N/A,,Clear,310,2013-06-29 20:00:00
11:00 PM,53.6,48.2,82,30.04,-9999.0,NW,4.6,-,N/A,,Clear,310,2013-06-29 21:00:00